Regional Weather Roundup
Issued by NWS Columbia, SC

Home | Current Version | Previous Version | Text Only | Print | Product List | Glossary On
Versions: 1 2 3 4 5 6 7 8 9 10 11 12 13 14 15 16 17 18 19 20 21 22 23 24 25 26 27 28 29 30 31 32 33 34 35 36 37 38 39 40 41 42 43 44 45 46 47 48 49 50
000
ASUS42 KCAE 271010
RWRCAE
REGIONAL WEATHER ROUNDUP
NATIONAL WEATHER SERVICE COLUMBIA SC
500 AM EST SAT DEC 27 2014

NOTE: "FAIR" INDICATES FEW OR NO CLOUDS BELOW 12,000 FEET WITH NO
SIGNIFICANT WEATHER AND/OR OBSTRUCTIONS TO VISIBILITY.

NOT ALL STATIONS ARE QUALITY CONTROLLED BY THE NATIONAL
WEATHER SERVICE. USE DATA WITH CAUTION...ESPECIALLY
DEWPOINT OBSERVATIONS.

SCZ001>056-GAZ040-063>065-077-271100-
...UPSTATE SOUTH CAROLINA...

CITY           SKY/WX    TMP DP  RH WIND       PRES   REMARKS
ANDERSON       CLEAR     33  33 100 CALM      30.28S
LIBERTY        FAIR      31  28  90 MISG      30.27S
SPARTANBURG    FAIR      36 N/A N/A CALM      30.28R
CLEMSON        PTCLDY    39  36  89 CALM      30.28F
GREENVILLE     PTCLDY    40  33  76 E3        30.28R
GREENWOOD      CLEAR     31  29  92 CALM      30.30F
GREER          PTCLDY    38  36  92 CALM      30.26R
ROCK HILL      CLEAR     32  31  96 CALM      30.29F
CHESTER        FAIR      36  32  87 CALM      30.29F
LAURENS        FAIR      36  36 100 CALM      30.28S


...CENTRAL SOUTH CAROLINA...

CITY           SKY/WX    TMP DP  RH WIND       PRES   REMARKS
COLUMBIA APT   CLEAR     32  29  88 CALM      30.30S
COLUMBIA OWENS CLEAR     34  31  88 CALM      30.31S
DARLINGTON     CLEAR     34  28  80 CALM      30.30S
FLORENCE       CLEAR     34  32  92 CALM      30.29F
MCENTIRE ANGB  CLEAR     31  31  99 NW5       30.30S WCI  26
ORANGEBURG     CLEAR     36  33  89 CALM      30.29S
SUMTER SHAW    PTCLDY    34  31  88 CALM      30.28S
NEWBERRY       FAIR      32 N/A N/A CALM      30.32F
AIKEN          FAIR      32  32 100 CALM      30.31F
BARNWELL         N/A     32  32 100 CALM      30.30S
MANNING        FAIR      34 N/A N/A CALM      30.28F
CAMDEN         FAIR      32  28  86 CALM      30.31S
LANCASTER      HVY RAIN  30  30 100 CALM      30.31S
WINNSBORO      FAIR      36  34  93 CALM      30.29S


...EASTERN AND COASTAL SOUTH CAROLINA...

CITY           SKY/WX    TMP DP  RH WIND       PRES   REMARKS
MYRTLE BEACH   CLEAR     39  37  93 CALM      30.29F
N MYRTLE BCH   CLEAR     37  36  96 CALM      30.29S FOG
CONWAY           N/A     32  32 100 CALM      30.30S FOG
MARION         FAIR      34  34 100 CALM      30.30S FOG
HARTSVILLE     FAIR      37  37 100 CALM      30.29S
FLORENCE       CLEAR     34  32  92 CALM      30.29F
DARLINGTON     CLEAR     34  28  80 CALM      30.30S
CHARLESTON APT CLEAR     41  41 100 CALM      30.28S
MOUNT PLEASANT MIX PCPN  43  43 100 CALM      30.28S
WALTERBORO     SUNNY     36 N/A N/A CALM      30.28F
BEAUFORT       CLEAR     45  42  89 N5        30.27F


...EASTERN GEORGIA...

CITY           SKY/WX    TMP DP  RH WIND       PRES   REMARKS
AUGUSTA BUSH F CLEAR     30  29  96 W3        30.30F
AUGUSTA DANIEL CLEAR     41  38  89 NE3       30.29F
THOMSON        PTCLDY    32  32 100 CALM      30.34R
WASHINGTON     FAIR      36  36 100 CALM      30.28S
CLAXTON        FAIR      37  37 100 CALM      30.28R
SYLVANIA       SUNNY     38  38 100 CALM      30.29R
STATESBORO     CLEAR     36  36 100 CALM      30.28R
SAVANNAH       CLEAR     43  41  93 CALM      30.27S FOG


...SOUTHERN NORTH CAROLINA...

CITY           SKY/WX    TMP DP  RH WIND       PRES   REMARKS
CHARLOTTE      MOCLDY    37  32  82 CALM      30.29F
MONROE         CLEAR     32  29  88 CALM      30.28F
WADESBORO      FOG       30  29  96 CALM      30.30S VSB 3/4
ROCKINGHAM     SUNNY     30  29  97 CALM      30.29F
RUTHERFORDTON  PTCLDY    35  34  96 CALM      30.28S
ASHEVILLE      MOCLDY    36  32  85 CALM      30.28S

$$


USA.gov is the U.S. government's official web portal to all federal, state and local government web resources and services.